Wind_Speed
59 55 53 59 54 51 51 52 55 55 47 41 40 40 36 31 35 34 32 32 32 33 26 26 23 22 23 25 27 25 27 29 30 31 32 33 35 36 36 35 36 36 37 38
60 57 63 60 56 55 56 57 57 57 51 43 42 40 37 34 36 35 36 37 35 36 34 32 26 25 26 26 25 25 27 28 30 31 31 32 32 35 36 38 38 38 40 42
66 65 66 64 61 59 62 61 62 58 53 47 46 39 39 41 36 35 40 39 39 40 40 37 32 26 30 32 32 30 28 30 31 32 33 32 31 32 35 36 36 37 39 41
70 68 69 68 66 66 66 69 65 63 59 51 49 35 42 47 38 39 44 42 43 43 43 43 36 27 31 36 36 36 34 34 36 36 35 35 36 37 38 37 38 40 41 42
74 74 72 70 70 72 67 70 69 68 66 58 50 38 39 48 41 47 48 47 48 46 46 46 41 32 33 36 36 38 38 37 36 38 40 39 39 40 40 39 40 43 45 47
80 78 77 74 75 77 74 74 75 73 71 64 57 50 30 42 47 51 52 53 55 53 52 50 45 38 36 39 41 41 41 40 39 40 41 42 42 42 41 42 44 45 47 49
85 82 82 81 80 80 78 79 81 81 76 65 63 58 29 42 51 52 55 60 61 61 61 58 48 40 40 40 43 44 43 43 43 44 44 44 42 42 44 46 46 46 47 49
89 86 85 82 84 86 87 85 83 80 81 76 72 58 40 51 51 59 62 67 66 67 70 68 57 47 42 44 46 47 47 48 49 48 47 46 46 47 49 48 47 47 48 49
89 83 88 88 90 93 89 87 84 90 87 84 74 59 53 55 59 64 64 65 67 74 75 75 70 57 52 44 46 46 46 49 52 53 53 51 50 49 50 50 50 52 52 53
97 96 93 88 90 92 92 89 92 93 91 91 79 74 61 58 64 64 63 66 72 76 78 79 76 72 67 54 47 48 49 52 54 55 56 56 56 54 55 55 56 56 57 56
105 105 100 100 98 96 99 98 97 97 98 95 91 83 67 66 67 68 71 72 75 77 82 84 80 69 70 64 57 54 54 56 57 58 60 60 62 62 61 61 62 63 64 63
110 112 108 104 105 105 107 102 102 104 98 102 101 90 72 75 74 76 76 75 76 81 83 82 81 76 73 71 64 61 63 62 60 60 62 63 65 67 67 67 67 68 69 69
117 118 112 112 110 106 102 101 102 104 108 108 107 95 81 83 81 80 80 80 81 83 86 85 81 74 73 76 74 69 67 66 64 65 66 67 68 69 70 70 71 71 73 74
119 126 125 116 108 110 110 110 109 112 114 106 108 95 82 83 86 84 82 82 86 87 87 85 83 80 77 75 75 75 72 71 70 72 71 70 71 71 73 75 76 75 75 76
112 115 118 117 119 120 118 117 117 120 111 114 102 108 91 91 93 91 90 88 89 92 90 87 85 83 79 76 77 78 77 77 76 79 76 73 73 74 75 77 78 77 77 78
114 113 112 106 102 112 119 119 122 121 118 120 115 113 101 98 99 98 96 96 96 96 94 91 89 84 81 79 78 78 81 82 83 82 78 77 75 76 76 78 80 80 80 82
123 123 121 117 113 117 119 102 103 107 110 111 114 103 102 101 102 103 101 102 100 97 98 96 94 90 85 82 82 82 84 85 86 85 83 81 79 78 79 79 81 84 85 87
135 133 131 132 129 130 119 114 110 109 103 101 103 98 96 99 106 101 98 103 102 102 101 100 98 96 95 94 90 86 85 84 85 85 85 84 82 81 83 86 88 90 91 91
142 143 145 142 139 136 128 117 118 121 114 114 109 99 94 99 106 98 93 97 100 98 97 97 99 99 98 97 93 92 92 91 89 89 88 87 87 89 91 92 94 94 96 97
134 146 153 149 146 144 134 122 123 130 127 114 120 120 114 110 107 94 102 94 92 93 94 96 97 97 99 99 99 99 98 95 94 92 91 92 93 94 96 97 98 101 102 103
121 123 130 131 134 135 132 136 139 145 136 127 131 130 124 122 122 114 105 99 98 99 97 94 96 96 96 97 98 99 100 101 100 100 100 101 102 102 102 104 105 105 106 106
115 118 118 119 122 116 108 116 125 131 135 135 135 136 131 129 127 127 125 119 111 110 108 107 105 102 100 96 97 97 96 98 99 100 101 102 102 103 105 107 110 109 110 108
115 113 114 118 113 109 104 106 109 115 119 121 122 125 128 132 137 137 134 131 126 122 114 116 114 111 108 104 98 100 100 98 97 97 98 99 98 99 100 101 100 100 100 101
108 110 114 113 107 107 106 103 104 106 109 113 114 114 115 114 115 118 122 124 126 125 123 122 120 115 110 104 102 102 100 98 99 98 97 97 98 99 99 98 100 100 102 103
102 104 107 107 106 106 104 106 106 107 107 106 108 108 111 108 107 104 106 112 114 118 119 116 116 115 111 109 108 105 104 104 101 97 95 96 98 100 102 102 101 102 103 106
92 93 99 98 101 101 98 105 108 107 108 106 105 105 109 108 105 104 104 103 105 106 109 109 108 109 108 108 110 108 109 109 107 107 108 106 108 108 107 107 111 112 114 119
Wind_Direction
244 247 248 249 250 254 258 262 270 270 270 267 269 272 271 271 273 276 278 278 278 281 278 278 280 283 283 283 283 285 283 278 273 271 269 271 270 272 272 273 274 276 278 278
246 245 247 250 251 255 256 260 261 264 265 267 268 267 270 269 273 277 276 276 279 278 278 279 283 286 284 280 281 282 281 283 284 283 279 276 276 275 276 275 275 277 277 278
245 246 249 251 253 252 253 257 258 262 265 267 264 262 269 269 268 275 275 276 277 279 279 280 281 289 290 288 286 284 283 279 275 277 280 282 282 279 279 280 282 280 280 282
245 248 250 250 251 251 252 256 260 265 265 263 262 258 268 268 268 269 271 274 276 275 278 279 282 284 285 285 287 288 289 287 283 278 281 282 283 282 281 282 281 280 280 281
245 247 249 252 253 256 256 258 259 261 263 261 264 257 261 271 270 269 271 274 273 272 274 276 278 282 280 280 281 284 287 287 285 284 284 284 282 282 282 282 282 282 282 282
244 245 249 250 252 255 255 256 257 259 261 261 261 259 239 263 268 270 274 276 274 273 275 275 277 279 280 282 284 283 286 287 288 289 289 287 286 285 284 284 284 282 283 284
246 246 247 248 251 254 256 255 257 257 260 262 260 259 241 252 261 267 271 274 276 277 278 278 280 283 285 283 282 285 286 288 286 286 287 286 284 282 283 283 282 283 283 282
246 247 248 249 250 251 252 254 259 262 261 259 257 258 254 255 255 262 267 271 275 277 276 276 277 281 281 282 282 285 288 288 288 285 285 283 284 285 284 283 283 283 282 283
240 243 248 247 249 252 253 256 257 259 259 259 260 259 251 254 256 255 258 264 268 270 271 274 277 282 283 280 281 282 281 282 284 284 286 283 285 283 282 281 282 286 286 287
247 246 243 243 248 250 254 254 256 260 260 260 257 256 255 253 254 256 257 257 260 263 267 268 271 278 281 281 280 278 279 280 282 283 284 282 282 284 283 281 282 284 285 286
248 248 249 248 248 248 249 250 252 254 256 259 258 257 253 254 254 255 255 255 258 261 263 268 271 276 279 280 281 279 279 282 282 281 282 283 283 285 283 282 281 282 286 288
249 248 248 248 250 251 253 255 256 257 258 258 258 257 258 258 256 256 257 258 258 261 264 267 271 274 276 278 278 278 278 279 279 281 282 283 282 282 282 282 283 281 281 283
250 249 249 249 249 251 253 255 256 258 258 259 260 261 261 262 262 262 263 261 263 263 265 268 269 270 273 277 278 277 277 277 280 282 280 280 281 281 280 281 282 281 281 281
251 252 250 251 250 252 253 253 254 256 257 262 262 265 262 264 264 265 266 266 266 266 266 267 269 271 273 276 279 279 280 279 279 280 280 280 281 281 281 282 282 282 282 282
253 254 253 252 252 254 254 254 257 258 259 262 263 265 263 263 263 261 262 264 266 268 270 269 270 273 275 276 277 279 279 278 277 279 281 281 283 280 281 280 280 281 282 282
258 260 259 259 258 257 255 255 256 260 262 263 264 263 266 263 264 265 264 264 264 265 266 268 269 268 270 273 274 274 275 275 278 280 280 280 281 280 279 278 279 280 281 282
257 259 259 261 261 262 260 258 260 259 261 263 263 264 263 268 266 263 264 266 267 267 267 268 268 269 270 270 270 270 272 274 276 277 279 280 279 276 277 277 278 279 280 282
257 258 256 259 260 260 262 263 263 265 260 261 263 261 262 263 264 264 264 265 264 264 266 268 267 268 269 271 272 271 273 273 274 275 276 277 274 274 274 275 276 278 279 281
253 253 256 257 259 260 260 261 264 266 265 266 266 263 261 261 260 261 264 263 262 265 265 267 269 271 272 271 269 269 270 270 270 271 272 272 272 272 273 273 275 276 278 279
254 252 252 255 258 259 263 262 264 264 264 264 267 269 268 266 261 259 260 260 261 263 264 265 266 267 268 269 270 270 269 269 269 271 271 270 271 271 270 270 272 274 276 278
254 253 254 254 255 256 257 260 261 262 266 263 262 264 264 266 269 267 264 262 263 262 262 263 265 266 267 268 268 268 269 269 270 270 270 270 270 270 269 271 273 274 276 277
251 252 254 255 255 256 256 256 256 257 260 259 259 260 261 262 264 267 269 270 267 267 266 267 269 270 268 269 269 268 269 268 269 268 268 269 268 269 270 271 273 275 276 276
251 254 253 255 255 257 255 255 255 257 258 258 259 261 260 260 262 264 266 268 271 272 271 270 270 270 271 271 271 268 267 267 267 267 268 268 269 269 269 270 271 272 274 275
251 252 254 253 256 257 258 257 257 257 256 258 260 262 262 260 259 261 263 264 266 267 267 268 270 271 271 271 271 271 270 268 267 267 267 267 268 267 267 269 270 274 275 278
251 251 252 254 254 255 256 257 257 257 256 256 258 260 261 262 262 260 261 262 262 263 267 267 269 270 271 272 273 273 272 272 272 272 271 269 271 270 272 274 276 280 282 284
252 253 253 254 255 254 253 255 256 257 258 257 257 259 261 263 264 264 263 262 261 262 264 265 264 266 267 269 270 272 274 275 276 276 277 277 279 279 280 282 283 284 285 287
Height
10732 10738 10739 10735 10745 10752 10754 10755 10755 10756 10768 10773 10773 10772 10775 10776 10773 10773 10774 10773 10773 10772 10775 10774 10774 10773 10773 10771 10769 10768 10765 10764 10762 10760 10758 10757 10756 10755 10754 10752 10751 10749 10747 10745
10721 10729 10721 10728 10736 10740 10742 10743 10741 10744 10756 10765 10767 10765 10766 10768 10765 10766 10766 10765 10766 10764 10766 10767 10769 10768 10766 10765 10764 10761 10758 10756 10755 10753 10752 10749 10749 10747 10745 10743 10742 10740 10737 10735
10710 10714 10713 10718 10724 10726 10728 10731 10727 10734 10745 10756 10756 10763 10759 10758 10760 10760 10754 10756 10757 10757 10757 10758 10760 10762 10758 10756 10755 10753 10752 10749 10746 10745 10743 10741 10740 10738 10736 10734 10733 10731 10728 10725
10698 10703 10701 10703 10708 10710 10715 10714 10718 10723 10731 10742 10746 10762 10752 10745 10754 10751 10745 10749 10747 10748 10748 10746 10750 10754 10752 10748 10745 10743 10742 10741 10738 10737 10736 10733 10731 10729 10726 10725 10723 10720 10718 10716
10688 10685 10688 10692 10695 10693 10706 10702 10706 10709 10713 10725 10738 10749 10751 10738 10745 10738 10737 10738 10737 10737 10737 10737 10740 10743 10743 10741 10739 10736 10735 10732 10730 10728 10727 10724 10721 10720 10717 10715 10712 10709 10706 10704
10669 10674 10674 10679 10677 10678 10688 10688 10689 10693 10697 10709 10721 10729 10750 10738 10730 10727 10725 10723 10724 10725 10726 10725 10728 10732 10733 10732 10730 10727 10725 10722 10720 10718 10717 10714 10711 10709 10707 10705 10702 10699 10696 10692
10649 10656 10659 10661 10663 10665 10671 10673 10670 10672 10681 10701 10704 10711 10745 10734 10724 10720 10714 10709 10709 10712 10712 10711 10713 10718 10721 10721 10718 10716 10714 10712 10710 10708 10706 10703 10701 10699 10696 10692 10689 10687 10684 10680
10628 10636 10645 10650 10648 10644 10645 10653 10658 10664 10665 10677 10684 10706 10732 10721 10720 10711 10706 10699 10699 10698 10699 10698 10701 10704 10708 10708 10707 10705 10703 10701 10698 10697 10695 10692 10689 10687 10683 10679 10676 10673 10670 10667
10605 10612 10622 10627 10626 10623 10636 10638 10647 10635 10644 10651 10673 10697 10708 10706 10703 10700 10698 10695 10689 10683 10682 10684 10685 10690 10691 10695 10695 10695 10693 10690 10687 10685 10683 10680 10677 10674 10670 10667 10664 10660 10657 10653
10583 10593 10602 10604 10607 10611 10614 10623 10620 10619 10625 10628 10655 10665 10688 10691 10683 10682 10684 10685 10679 10671 10667 10666 10671 10673 10673 10680 10682 10682 10680 10678 10674 10671 10669 10665 10663 10660 10657 10654 10650 10647 10643 10640
10564 10570 10584 10587 10595 10595 10587 10597 10603 10601 10602 10608 10624 10641 10668 10669 10668 10668 10665 10664 10662 10660 10653 10650 10655 10660 10659 10663 10666 10667 10664 10663 10660 10657 10654 10651 10648 10645 10642 10639 10635 10632 10629 10625
10536 10542 10556 10567 10568 10574 10576 10589 10587 10582 10598 10587 10589 10622 10647 10647 10648 10649 10647 10646 10645 10642 10639 10638 10635 10641 10643 10644 10650 10651 10649 10647 10646 10643 10640 10635 10632 10628 10625 10623 10619 10616 10613 10609
10514 10512 10530 10543 10553 10561 10566 10568 10564 10561 10558 10567 10574 10605 10626 10627 10627 10627 10625 10625 10624 10624 10621 10619 10620 10621 10624 10627 10630 10633 10633 10630 10628 10626 10622 10619 10615 10612 10608 10605 10601 10597 10595 10591
10487 10487 10503 10526 10540 10533 10539 10543 10540 10533 10533 10561 10554 10586 10612 10609 10601 10600 10600 10602 10600 10599 10600 10602 10602 10605 10609 10609 10607 10608 10612 10613 10609 10604 10601 10598 10595 10593 10590 10586 10582 10579 10575 10572
10464 10467 10478 10502 10509 10508 10516 10517 10514 10511 10535 10527 10560 10543 10587 10580 10570 10574 10578 10579 10577 10575 10581 10583 10585 10585 10588 10592 10592 10590 10591 10590 10587 10582 10582 10579 10577 10573 10571 10567 10563 10560 10557 10552
10444 10449 10455 10470 10486 10477 10480 10488 10493 10506 10514 10505 10526 10526 10553 10544 10547 10552 10555 10556 10554 10557 10559 10558 10560 10565 10569 10571 10571 10572 10568 10566 10566 10562 10559 10558 10555 10551 10549 10546 10542 10539 10536 10532
10425 10425 10428 10436 10450 10439 10434 10476 10482 10482 10485 10487 10483 10514 10517 10520 10521 10521 10529 10526 10531 10533 10530 10535 10540 10542 10544 10545 10546 10548 10546 10547 10544 10541 10537 10534 10533 10530 10527 10525 10522 10517 10514 10510
10398 10402 10399 10399 10412 10403 10430 10443 10449 10451 10459 10463 10461 10477 10490 10492 10479 10491 10504 10499 10503 10502 10508 10512 10513 10517 10520 10521 10523 10525 10523 10522 10521 10519 10515 10512 10511 10509 10507 10503 10499 10495 10490 10487
10373 10370 10365 10364 10374 10380 10401 10431 10424 10416 10430 10429 10430 10453 10466 10462 10445 10467 10471 10468 10471 10476 10483 10487 10488 10491 10494 10495 10498 10499 10498 10497 10497 10495 10494 10491 10490 10487 10483 10479 10474 10470 10466 10462
10332 10336 10328 10345 10342 10350 10381 10412 10403 10381 10377 10423 10407 10413 10420 10420 10414 10449 10430 10441 10449 10452 10455 10459 10462 10464 10466 10467 10469 10471 10471 10471 10470 10470 10468 10466 10463 10461 10457 10452 10448 10445 10440 10437
10296 10297 10296 10311 10309 10322 10364 10376 10367 10341 10363 10381 10371 10375 10388 10392 10389 10402 10412 10416 10419 10425 10430 10433 10436 10437 10437 10438 10439 10441 10441 10441 10441 10441 10440 10439 10437 10434 10431 10427 10424 10418 10414 10411
10268 10262 10271 10276 10280 10298 10337 10338 10327 10320 10324 10338 10345 10352 10354 10360 10367 10368 10377 10382 10387 10393 10398 10402 10406 10408 10410 10411 10411 10411 10411 10410 10410 10410 10409 10408 10407 10405 10402 10399 10395 10392 10387 10383
10234 10245 10249 10242 10259 10274 10292 10296 10299 10296 10299 10305 10309 10313 10323 10334 10335 10338 10346 10353 10355 10357 10360 10364 10371 10374 10377 10378 10378 10382 10381 10381 10381 10381 10380 10379 10377 10374 10372 10369 10367 10364 10360 10355
10210 10220 10214 10223 10243 10248 10254 10266 10269 10268 10272 10273 10276 10283 10285 10295 10303 10309 10312 10319 10324 10324 10328 10332 10334 10337 10340 10344 10346 10347 10349 10351 10351 10351 10351 10350 10348 10345 10342 10340 10337 10333 10329 10324
10184 10190 10194 10202 10214 10218 10230 10229 10232 10236 10242 10250 10250 10255 10256 10261 10267 10278 10283 10283 10287 10290 10293 10302 10304 10306 10310 10311 10312 10313 10314 10314 10315 10316 10316 10316 10314 10312 10310 10308 10305 10301 10297 10293
10163 10169 10167 10180 10182 10188 10205 10198 10200 10207 10210 10216 10223 10227 10227 10230 10236 10242 10247 10254 10258 10262 10264 10268 10274 10277 10280 10282 10282 10283 10282 10281 10282 10283 10283 10283 10282 10280 10278 10275 10272 10270 10266 10261